This is the latest recevied weather packets stored in our database for station/object AB1AU. If no packets are shown the sender has not sent any weather packets the latest 1 day(s).
| Time | Temp. | Humidity | Pressure | Rain* | Wind** | Luminosity | Snow |
|---|---|---|---|---|---|---|---|
| 1836274696 | 11.11° C | 59% | 1021.7 hPa | 0 mm | 0 m/s | 0 W/m² | - |
| 1836274549 | 11.11° C | 61% | 1022.2 hPa | 0 mm | 0 m/s | 0 W/m² | - |
| 1836274394 | 11.67° C | 58% | 1021.6 hPa | 0 mm | 0 m/s | 0 W/m² | - |
| 1836274247 | 11.11° C | 60% | 1022 hPa | 0 mm | 0 m/s | 0 W/m² | - |
| 1836274092 | 11.67° C | 58% | 1021.6 hPa | 0 mm | 0 m/s | 0 W/m² | - |
| 1778057392 | 12.78° C | 79% | 1010.2 hPa | 0 mm | 0 m/s | 0 W/m² | - |
| 1778057089 | 12.78° C | 79% | 1010.4 hPa | 0 mm | 0 m/s | 0 W/m² | - |
| 1778056785 | 12.78° C | 79% | 1010.2 hPa | 0 mm | 0 m/s | 0 W/m² | - |
| 1778056482 | 12.78° C | 79% | 1010.6 hPa | 0 mm | 0 m/s | 0 W/m² | - |
| 1778056179 | 12.78° C | 78% | 1010.4 hPa | 0 mm | 0 m/s | 0 W/m² | - |
| 1778055876 | 12.78° C | 78% | 1010.5 hPa | 0 mm | 0 m/s | 0 W/m² | - |
| 1778055572 | 12.78° C | 78% | 1010.4 hPa | 0 mm | 0 m/s | 0 W/m² | - |
| 1778055271 | 12.78° C | 78% | 1010.3 hPa | 0 mm | 0 m/s | 0 W/m² | - |
| 1778054967 | 12.78° C | 78% | 1010.2 hPa | 0 mm | 0 m/s | 0 W/m² | - |
| 1778054664 | 12.78° C | 78% | 1010.2 hPa | 0 mm | 0 m/s | 0 W/m² | - |
| 1778054362 | 12.78° C | 77% | 1010.3 hPa | 0 mm | 0.45 m/s, 242° | 0 W/m² | - |
| 1778054060 | 12.78° C | 77% | 1010.2 hPa | 0 mm | 0.45 m/s, 235° | 0 W/m² | - |
| 1778053769 | 12.78° C | 77% | 1010.2 hPa | 0 mm | 0 m/s | 0 W/m² | - |
| 1778053453 | 12.78° C | 77% | 1009.7 hPa | 0 mm | 0 m/s | 0 W/m² | - |
| 1778053150 | 12.78° C | 77% | 1010 hPa | 0 mm | 0.45 m/s, 231° | 0 W/m² | - |
| 1778052848 | 12.78° C | 77% | 1010 hPa | 0 mm | 0.45 m/s, 217° | 0 W/m² | - |
| 1778052545 | 12.78° C | 77% | 1010 hPa | 0 mm | 0 m/s | 0 W/m² | - |
| 1778052243 | 12.78° C | 77% | 1009.8 hPa | 0 mm | 0 m/s | 0 W/m² | - |
| 1778051940 | 12.78° C | 76% | 1009.8 hPa | 0 mm | 0.45 m/s, 338° | 0 W/m² | - |
| 1778051638 | 13.33° C | 77% | 1009.8 hPa | 0 mm | 0.45 m/s, 280° | 0 W/m² | - |
* Rain latest hour (hover to see other rain measurements)
** Current wind speed in m/s (hover to see current wind gust speed)